Regional Weather Roundup
Issued by NWS

Home | Current Version | Previous Version | Text Only | Print | Product List | Glossary Off
Versions: 1 2 3 4 5 6 7 8 9 10 11 12 13 14 15 16 17 18 19 20 21 22 23 24 25 26 27 28 29 30 31 32 33 34 35 36 37 38 39 40 41 42 43 44 45 46 47 48 49 50

000
ASUS45 KSLC 051610
RWRUT

UTAH REGIONAL WEATHER ROUNDUP
NATIONAL WEATHER SERVICE SALT LAKE CITY UT
1000 AM MDT SUN JUL 05 2015

UTZ001>011-023>025-051700-

NORTHERN UTAH

CITY           SKY/WX    TMP DP  RH WIND       PRES   REMARKS
BRIGHAM CITY   CLOUDY    69  60  74 NW7       30.07R
HILL AFB       CLOUDY    71  64  80 S8        30.09R
LOGAN          LGT RAIN  67  60  78 CALM      30.08R
OGDEN          CLOUDY    71  65  81 CALM      30.06R
PROVO AIRPORT  CLOUDY    68  59  73 SE3       30.10R
SALT LAKE CITY LGT RAIN  69  67  93 N10       30.05R
VERNAL         CLOUDY    71  57  61 CALM      30.11S
WENDOVER       PTSUNNY   81  52  36 SE7       30.05R
HEBER CITY     CLOUDY    64  59  82 CALM      30.14S
WEST JORDAN    CLOUDY    72  59  64 CALM      30.09R

$$

UTZ012>022-026-027-051700-

SOUTHERN/CENTRAL UTAH

CITY           SKY/WX    TMP DP  RH WIND       PRES   REMARKS
BLANDING       PTSUNNY   67  59  74 SE3       30.27R
BRYCE CANYON   SUNNY     71  46  40 W13G18    30.30S
CEDAR CITY     SUNNY     81  47  30 S6        30.15S
DELTA          MOSUNNY   79  49  34 SE6       30.06S
HANKSVILLE     CLOUDY    72  63  73 SE3       30.11S
MILFORD        SUNNY     83  47  28 S17       30.08F
MOAB/CYNLANDS  MOSUNNY   70  62  76 S3        30.09S
PRICE          CLOUDY    67  56  67 SE3       30.17R
ST GEORGE      CLOUDY    84  48  28 NW3       30.00S
KANAB          SUNNY     79  52  38 SW5       30.19S

$$

REGIONAL REPORTS     COLORADO/ARIZONA

CITY           SKY/WX    TMP DP  RH WIND       PRES   REMARKS
CRAIG, CO      CLOUDY    69  55  60 VRB5      30.19F
GRAND JUNCTION CLOUDY    66  62  87 W6        30.12S
RIFLE          CLOUDY    69  58  67 CALM      30.14F
MONTROSE       CLOUDY    69  59  70 VRB5      30.19S
CORTEZ         PTSUNNY   70  57  63 CALM      30.20S
PAGE, AZ       SUNNY     86  50  28 CALM      30.07S
GRAND CANYON   SUNNY     73  51  46 W10       30.28S
KINGMAN        MOSUNNY   90  50  25 SW6       30.04R
FLAGSTAFF      PTSUNNY   68  57  68 SW8       30.32S

$$

REGIONAL REPORTS    NEVADA/IDAHO/WYOMING

CITY           SKY/WX    TMP DP  RH WIND       PRES   REMARKS
LAS VEGAS, NV  MOSUNNY   95  45  17 CALM      29.88R HX  91
ELY            SUNNY     75  40  28 W8G21     30.19S
ELKO           PTSUNNY   72  55  55 SW16      30.12S
POCATELLO, ID  PTSUNNY   76  52  43 SW12      30.03R
BURLEY         CLOUDY    69  58  67 S10       30.00R
EVANSTON, WY   CLOUDY    61  55  81 SW6       30.22R
ROCK SPRINGS   CLOUDY    70  51  51 W16       30.17R
KEMMERER       LGT RAIN  57  55  94 NW6       30.23S

$$



USA.gov is the U.S. government's official web portal to all federal, state and local government web resources and services.